Location: Baili�vre
(50.0696°N, 4.2409°E)
Time: 19:28:53
(UTC+00:00)

Cosmos 1238 Rocket - Pass Details

Date: 08 August 2020
Orbit: 375 x 1027 km, 82.9° (Epoch: 21 September)

Event Time Altitude Azimuth Distance (km) Brightness Sun altitude
Exits shadow 22:07:59 18° 252° (WSW) 1,032 4.3 -20.5°
Maximum altitude 22:09:11 23° 287° (WNW) 870 4.3 -20.6°
Drops below altitude 10° 22:11:39 10° 343° (NNW) 1,400 6.1 -20.8°
Sets 22:13:53 0° 359° (N) 2,267 7.1 -20.9°
